Satellite-Ground Cal/Val Site Overpasses Predictions

Prediction of Satellite NPP Overpassing Cal/Val Site: Antarctic Dome C

Ground Cal/Val Site Location: Latitude: -75.10, Longitude: 123.35; Satellite-Ground Site NADIR distance within 100 km.

Table of predicted overpasses for the next 14.0 days since TLE Epoch: 8/21/2021
Interval Starting Time Ending Time Minimum Distance Time Minimum Distance (km)
1 08/21/2021 14:36:46 08/21/2021 14:37:02 08/21/2021 14:36:54 82.09
2 08/22/2021 07:38:19 08/22/2021 07:38:46 08/22/2021 07:38:33 37.45
3 08/23/2021 07:19:34 08/23/2021 07:19:54 08/23/2021 07:19:44 72.40
4 08/25/2021 15:01:51 08/25/2021 15:02:14 08/25/2021 15:02:02 62.30
5 08/26/2021 14:43:00 08/26/2021 14:43:25 08/26/2021 14:43:13 47.05
6 08/27/2021 07:44:42 08/27/2021 07:45:02 08/27/2021 07:44:52 72.73
7 08/28/2021 07:25:49 08/28/2021 07:26:16 08/28/2021 07:26:03 34.97
8 08/31/2021 14:49:17 08/31/2021 14:49:46 08/31/2021 14:49:32 11.16
